When you browse on this site, cookies collect data to enhance your experience and personalize the content and advertising you see.
Visit our Privacy Policy to learn more. By continuing to use the site, you agree to this use of cookies and data.
  • en Belgique
  • Liste des pays
  • À 7 jours
  • Température de l'eau
  • Carte satellitaire
  • Carte météo
  • Widgets météo
  • user-avatar
    Se connecter

    Météo par heure à Pritykino

    Ce jour, 22 Février, Vendredi

    Heure Température Précipitation Vent Pression Humidité
    00:00 -14°C° 0.1 mm 7 m/s 745 mmHg 81%
    01:00 -14°C° 0.1 mm 7 m/s 745 mmHg 81%
    02:00 -14°C° 0.1 mm 7 m/s 746 mmHg 81%
    03:00 -14°C° 0.1 mm 7 m/s 746 mmHg 80%
    04:00 -15°C° 0.1 mm 7 m/s 747 mmHg 80%
    05:00 -15°C° 0.1 mm 7 m/s 747 mmHg 79%
    06:00 -15°C° 0.1 mm 7 m/s 748 mmHg 79%
    07:00 -15°C° 0.1 mm 7 m/s 749 mmHg 79%
    08:00 -15°C° 0.1 mm 7 m/s 750 mmHg 79%
    09:00 -15°C° 0.1 mm 7 m/s 751 mmHg 77%
    10:00 -16°C° 0.1 mm 8 m/s 751 mmHg 76%
    11:00 -15°C° 0.1 mm 8 m/s 752 mmHg 74%
    12:00 -15°C° 0 mm 8 m/s 753 mmHg 72%
    13:00 -13°C° 0 mm 8 m/s 753 mmHg 70%
    14:00 -13°C° 0 mm 7 m/s 754 mmHg 68%
    15:00 -13°C° 0 mm 7 m/s 755 mmHg 70%
    16:00 -14°C° 0 mm 6 m/s 756 mmHg 72%
    17:00 -14°C° 0 mm 6 m/s 757 mmHg 74%
    18:00 -14°C° 0 mm 6 m/s 758 mmHg 75%
    19:00 -14°C° 0 mm 6 m/s 758 mmHg 77%
    20:00 -13°C° 0 mm 5 m/s 759 mmHg 79%
    21:00 -14°C° 0 mm 5 m/s 760 mmHg 81%
    22:00 -14°C° 0 mm 5 m/s 760 mmHg 83%
    23:00 -14°C° 0 mm 4 m/s 761 mmHg 85%

    Demain, 23 Février, Samedi

    Heure Température Précipitation Vent Pression Humidité
    00:00 -15°C° 0 mm 4 m/s 761 mmHg 87%
    01:00 -15°C° 0 mm 4 m/s 762 mmHg 88%
    02:00 -14°C° 0 mm 3 m/s 763 mmHg 90%
    03:00 -15°C° 0 mm 3 m/s 763 mmHg 91%
    04:00 -15°C° 0 mm 3 m/s 763 mmHg 93%
    05:00 -16°C° 0 mm 3 m/s 763 mmHg 94%
    06:00 -15°C° 0 mm 2 m/s 764 mmHg 92%
    07:00 -15°C° 0 mm 2 m/s 764 mmHg 90%
    08:00 -15°C° 0 mm 2 m/s 764 mmHg 88%
    09:00 -13°C° 0 mm 2 m/s 764 mmHg 84%
    10:00 -12°C° 0 mm 2 m/s 763 mmHg 80%
    11:00 -9°C° 0 mm 2 m/s 763 mmHg 76%
    12:00 -8°C° 0 mm 2 m/s 763 mmHg 75%
    13:00 -8°C° 0 mm 3 m/s 762 mmHg 74%
    14:00 -8°C° 0 mm 3 m/s 762 mmHg 73%
    15:00 -9°C° 0.1 mm 4 m/s 761 mmHg 76%
    16:00 -9°C° 0.1 mm 4 m/s 760 mmHg 79%
    17:00 -9°C° 0.1 mm 4 m/s 759 mmHg 82%
    18:00 -9°C° 0.5 mm 4 m/s 759 mmHg 85%
    19:00 -10°C° 0.5 mm 5 m/s 758 mmHg 87%
    20:00 -8°C° 0.5 mm 5 m/s 757 mmHg 90%
    21:00 -8°C° 0.3 mm 5 m/s 757 mmHg 90%
    22:00 -8°C° 0.3 mm 5 m/s 756 mmHg 90%
    23:00 -7°C° 0.3 mm 4 m/s 755 mmHg 91%

    Après-demain, 24 Février, Dimanche

    Heure Température Précipitation Vent Pression Humidité
    00:00 -7°C° 0.5 mm 4 m/s 755 mmHg 92%
    01:00 -5°C° 0.5 mm 4 m/s 755 mmHg 92%
    02:00 -4°C° 0.5 mm 4 m/s 754 mmHg 93%
    03:00 -3°C° 0.3 mm 4 m/s 754 mmHg 93%
    04:00 -2°C° 0.3 mm 4 m/s 754 mmHg 93%
    05:00 -1°C° 0.3 mm 4 m/s 754 mmHg 92%
    06:00 -1°C° 0.3 mm 4 m/s 754 mmHg 93%
    07:00 0°C° 0.3 mm 3 m/s 754 mmHg 94%
    08:00 0°C° 0.3 mm 3 m/s 755 mmHg 95%
    09:00 +1°C° 0.1 mm 3 m/s 755 mmHg 96%
    10:00 +1°C° 0.1 mm 3 m/s 755 mmHg 97%
    11:00 +1°C° 0.1 mm 3 m/s 755 mmHg 98%
    12:00 +1°C° 0 mm 3 m/s 755 mmHg 98%
    13:00 +1°C° 0 mm 3 m/s 755 mmHg 98%
    14:00 +1°C° 0 mm 3 m/s 756 mmHg 98%
    15:00 0°C° 0 mm 3 m/s 756 mmHg 98%
    16:00 0°C° 0 mm 3 m/s 756 mmHg 97%
    17:00 0°C° 0 mm 3 m/s 756 mmHg 96%
    18:00 0°C° 0 mm 3 m/s 755 mmHg 96%
    19:00 0°C° 0 mm 3 m/s 755 mmHg 96%
    20:00 0°C° 0 mm 3 m/s 755 mmHg 95%
    21:00 0°C° 0 mm 3 m/s 754 mmHg 95%
    22:00 0°C° 0 mm 3 m/s 754 mmHg 95%
    23:00 0°C° 0 mm 3 m/s 753 mmHg 95%

    25 Février, Lundi

    Heure Température Précipitation Vent Pression Humidité
    00:00 -1°C° 0.4 mm 4 m/s 753 mmHg 95%
    01:00 0°C° 0.4 mm 4 m/s 752 mmHg 95%
    02:00 0°C° 0.4 mm 5 m/s 751 mmHg 94%
    03:00 0°C° 0 mm 5 m/s 751 mmHg 94%
    04:00 0°C° 0 mm 5 m/s 750 mmHg 93%
    05:00 0°C° 0 mm 5 m/s 750 mmHg 92%
    06:00 0°C° 0.1 mm 5 m/s 749 mmHg 91%
    07:00 0°C° 0.1 mm 5 m/s 749 mmHg 91%
    08:00 0°C° 0.1 mm 5 m/s 749 mmHg 90%
    09:00 0°C° 0.1 mm 5 m/s 749 mmHg 89%
    10:00 0°C° 0.1 mm 5 m/s 749 mmHg 89%
    11:00 0°C° 0.1 mm 5 m/s 749 mmHg 88%
    12:00 0°C° 0 mm 5 m/s 749 mmHg 86%
    13:00 0°C° 0 mm 5 m/s 749 mmHg 83%
    14:00 -1°C° 0 mm 6 m/s 749 mmHg 81%
    15:00 -2°C° 0 mm 6 m/s 748 mmHg 82%
    16:00 -1°C° 0 mm 5 m/s 748 mmHg 82%
    17:00 -1°C° 0 mm 5 m/s 748 mmHg 82%
    18:00 -2°C° 0.1 mm 5 m/s 748 mmHg 83%
    19:00 -2°C° 0.1 mm 5 m/s 747 mmHg 83%
    20:00 -2°C° 0.1 mm 5 m/s 747 mmHg 83%
    21:00 -2°C° 0.1 mm 5 m/s 746 mmHg 85%
    22:00 -2°C° 0.1 mm 4 m/s 746 mmHg 87%
    23:00 -2°C° 0.1 mm 4 m/s 746 mmHg 89%

    26 Février, Mardi

    Heure Température Précipitation Vent Pression Humidité
    00:00 -2°C° 0.2 mm 4 m/s 746 mmHg 89%
    01:00 -2°C° 0.2 mm 4 m/s 746 mmHg 89%
    02:00 -2°C° 0.2 mm 4 m/s 746 mmHg 89%
    03:00 -2°C° 0 mm 4 m/s 746 mmHg 89%
    04:00 -3°C° 0 mm 4 m/s 746 mmHg 90%
    05:00 -3°C° 0 mm 4 m/s 746 mmHg 90%
    06:00 -3°C° 0 mm 4 m/s 746 mmHg 88%
    07:00 -3°C° 0 mm 4 m/s 746 mmHg 86%
    08:00 -3°C° 0 mm 4 m/s 746 mmHg 85%
    09:00 -3°C° 0.1 mm 4 m/s 745 mmHg 84%
    10:00 -3°C° 0.1 mm 4 m/s 745 mmHg 83%
    11:00 -2°C° 0.1 mm 4 m/s 745 mmHg 82%
    12:00 -2°C° 0.1 mm 4 m/s 744 mmHg 82%
    13:00 -2°C° 0.1 mm 4 m/s 744 mmHg 82%
    14:00 -2°C° 0.1 mm 4 m/s 743 mmHg 83%
    15:00 -2°C° 0.1 mm 4 m/s 743 mmHg 84%
    16:00 -2°C° 0.1 mm 3 m/s 743 mmHg 86%
    17:00 -2°C° 0.1 mm 3 m/s 743 mmHg 88%
    18:00 -2°C° 0.1 mm 3 m/s 743 mmHg 86%
    19:00 -4°C° 0.1 mm 4 m/s 743 mmHg 85%
    20:00 -4°C° 0.1 mm 4 m/s 743 mmHg 84%
    21:00 -5°C° 0 mm 4 m/s 744 mmHg 84%
    22:00 -7°C° 0 mm 4 m/s 744 mmHg 83%
    23:00 -7°C° 0 mm 4 m/s 744 mmHg 83%

    27 Février, Mercredi

    Heure Température Précipitation Vent Pression Humidité
    00:00 -9°C° 0 mm 4 m/s 745 mmHg 83%
    01:00 -10°C° 0 mm 4 m/s 745 mmHg 84%
    02:00 -11°C° 0 mm 4 m/s 746 mmHg 84%
    03:00 -12°C° 0 mm 4 m/s 746 mmHg 84%
    04:00 -12°C° 0 mm 4 m/s 747 mmHg 83%
    05:00 -14°C° 0 mm 4 m/s 747 mmHg 83%
    06:00 -14°C° 0 mm 4 m/s 748 mmHg 81%
    07:00 -14°C° 0 mm 4 m/s 748 mmHg 79%
    08:00 -14°C° 0 mm 4 m/s 749 mmHg 77%
    09:00 -12°C° 0 mm 3 m/s 749 mmHg 74%
    10:00 -9°C° 0 mm 3 m/s 749 mmHg 71%
    11:00 -8°C° 0 mm 3 m/s 749 mmHg 68%
    12:00 -8°C° 0 mm 3 m/s 749 mmHg 68%
    13:00 -7°C° 0 mm 3 m/s 748 mmHg 69%
    14:00 -5°C° 0 mm 2 m/s 748 mmHg 70%
    15:00 -5°C° 0 mm 2 m/s 747 mmHg 76%
    16:00 -5°C° 0 mm 2 m/s 747 mmHg 82%
    17:00 -5°C° 0 mm 2 m/s 747 mmHg 88%
    18:00 -5°C° 0 mm 2 m/s 746 mmHg 89%
    19:00 -5°C° 0 mm 3 m/s 745 mmHg 89%
    20:00 -4°C° 0 mm 3 m/s 744 mmHg 90%
    21:00 -4°C° 0 mm 4 m/s 743 mmHg 90%
    22:00 -4°C° 0 mm 4 m/s 742 mmHg 90%
    23:00 -3°C° 0 mm 4 m/s 740 mmHg 90%
    Voir plus